Location: Houston
(29.7630°N, 95.3630°W)
Time: 04:46:54
(UTC-05:00)

Daily predictions for brighter satellites

Satellite Brightness Start Highest point End
(mag) Time Altitude Azimuth Time Altitude Azimuth Time Altitude Azimuth
CZ-3A R/B 3.7 03:32:23 84° NW 03:32:23 84° NW 04:08:49 10° NE
SL-16 R/B 3.7 03:34:24 37° ENE 03:34:24 37° ENE 03:39:32 10° N
Resurs 1-4 Rocket 3.7 03:45:51 10° NNE 03:48:32 30° NNE 03:48:32 30° NNE
ARIANE 5 R/B 4.3 03:48:40 10° NNE 03:50:57 27° NNE 03:50:57 27° NNE
ATLAS 5 CENTAUR R/B 3.3 04:09:30 34° ENE 04:09:30 34° ENE 04:12:31 10° NE
USA 234 4.3 04:11:39 10° NNE 04:17:15 32° NW 04:17:15 32° NW
ATLAS CENTAUR R/B 3.8 04:16:02 10° N 04:19:13 21° NE 04:22:13 10° ESE
Meteor 2-3 Rocket 4.2 04:15:26 10° N 04:19:58 57° N 04:19:58 57° N
CZ-3 R/B 4.2 03:17:32 10° W 04:23:48 80° SSW 04:36:01 10° ESE
Meteor 2-10 4.4 04:36:28 58° NNW 04:36:28 58° NNW 04:40:59 10° N
Cosmos 1733 Rocket 4.2 04:33:58 10° N 04:38:08 42° E 04:38:54 38° ESE
Cosmos 1943 4.1 04:39:50 36° NW 04:39:50 36° NW 04:43:52 10° N
NOSS 3-3 (A) 4.4 04:38:59 10° NNW 04:46:41 89° ENE 04:54:43 10° SSE
NOSS 3-3 (C) 4.4 04:39:05 10° NNW 04:46:47 88° ENE 04:54:50 10° SSE
CZ-2D R/B 3.4 04:45:06 10° N 04:48:11 28° NW 04:48:11 28° NW
Cosmos 1455 4.0 04:54:29 24° NNW 04:54:29 24° NNW 04:56:14 10° N
CENTAUR R/B 2.3 04:51:52 58° SSW 04:53:10 85° ESE 04:59:43 10° NNE
Cosmos 2315 Rocket 4.1 04:55:52 50° W 04:55:54 50° W 05:01:57 10° N
Cosmos 2369 Rocket 2.0 04:50:50 10° NNW 04:56:27 85° WSW 05:02:05 10° SSE
Okean O Rocket 1.6 04:53:33 10° N 04:57:46 76° NNW 04:57:46 76° NNW
CZ-4B R/B 3.1 04:53:07 10° NNE 04:58:26 77° ESE 05:00:19 41° S
Okean-O 4.5 04:55:35 10° NE 04:59:25 28° E 05:03:14 10° SSE
ADEOS Rocket 4.4 04:54:57 10° NNE 05:02:26 49° E 05:09:46 10° S
ARGOS Delta rocket 4.1 05:02:53 10° N 05:06:27 44° NW 05:06:27 44° NW
CZ-2C R/B 3.6 05:07:44 18° SSE 05:11:05 85° ENE 05:15:31 10° N
Cosmos 839 Rocket 4.1 05:04:44 10° NNW 05:12:05 60° WSW 05:18:15 10° S
Cosmos 389 Rocket 3.5 05:13:58 35° NNW 05:13:58 35° NNW 05:16:14 10° N
Sich 1 Rocket 4.1 05:08:45 10° N 05:13:04 59° E 05:17:24 10° SSE
Cosmos 1703 Rocket 4.0 05:13:04 19° S 05:16:07 61° E 05:20:31 10° NNE
SL-16 R/B 3.8 05:19:30 22° WNW 05:19:30 22° WNW 05:22:33 10° NW
MOZ.5/SAFIR/RUBIN 5/SL-8 3.6 05:19:08 23° S 05:21:58 65° W 05:26:34 10° NNW
PAYLOAD B 4.3 05:16:52 10° N 05:22:18 58° WNW 05:24:40 33° SW
Cosmos 1302 Rocket 3.9 05:17:39 10° NNW 05:22:49 61° WSW 05:27:55 10° S
Cosmos 2263 4.1 05:20:13 10° NNW 05:25:57 66° WSW 05:31:39 10° S
Cosmos 1943 Rocket 2.5 05:21:18 10° NNW 05:26:57 70° ENE 05:32:32 10° SSE
Cosmos 1862 3.6 05:24:18 10° N 05:28:16 66° E 05:32:11 10° SSE
CZ-4B R/B 3.0 05:26:12 10° N 05:29:41 43° WNW 05:29:49 43° W
SL-08 ROCKET BODY 4.4 05:23:59 10° N 05:30:03 86° E 05:36:10 10° S
Resurs 1-4 Rocket 4.1 05:28:08 10° NW 05:29:37 12° WNW 05:29:37 12° WNW
Cosmos 1933 3.5 05:33:48 35° SW 05:35:11 52° W 05:39:12 10° N
COSMOS 2487 4.0 05:32:38 10° S 05:35:58 36° ESE 05:39:18 10° NNE
Feng Yun 1-1 Rocket 4.3 05:31:51 10° NNE 05:37:14 74° ESE 05:42:40 10° S
Cosmos 1825 2.1 05:34:25 10° N 05:38:13 83° E 05:41:59 10° S
BREEZE-M DEB (TANK) 4.1 05:40:09 25° WSW 05:42:14 33° SSW 05:53:05 10° SSE
Cosmos 1408 2.5 05:39:21 10° N 05:43:05 84° W 05:46:50 10° S
Cosmos 1184 Rocket 4.0 05:41:10 10° NNW 05:43:31 27° WNW 05:43:31 27° WNW
Skynet4D Del rocket 4.5 05:40:01 21° W 05:45:22 58° SSW 05:52:15 10° ESE
PSLV R/B 3.6 05:42:26 10° N 05:46:46 64° WNW 05:50:47 12° SSW
ADEOS II 2.0 05:43:37 10° N 05:48:53 83° WNW 05:54:08 10° SSW
Nadezhda 1 Rocket 4.1 05:43:18 10° SSW 05:49:22 57° W 05:55:33 10° N
SeaSat 1 3.0 05:45:10 10° S 05:49:33 33° WSW 05:53:58 10° NW
ATLAS 5 CENTAUR R/B 3.7 05:51:04 13° WNW 05:52:43 15° NW 05:55:38 10° NNW
Thor Agena Rocket 3.5 05:48:33 10° S 05:53:32 57° WSW 05:58:37 10° NNW
Okean 2 Rocket 3.6 05:49:26 10° N 05:53:54 64° E 05:58:22 10° SSE
ATLAS CENTAUR R/B 2.3 05:55:00 10° WNW 05:58:10 22° WSW 06:01:09 10° SSW
Atlas Centaur 2 2.4 05:55:28 18° SW 05:58:47 51° SSE 06:04:30 10° E
Cosmos 1190 Rocket 4.0 05:56:32 10° SSW 06:01:40 61° WNW 06:06:48 10° N
Cosmos 1656 Rocket 4.2 05:56:57 10° NNW 06:02:19 62° ENE 06:07:40 10° SSE
Okean 1-7 3.1 05:58:38 10° SSW 06:02:49 56° W 06:07:03 10° N
Intelsat 3F5 C 3.4 06:02:36 23° W 06:04:00 80° N 06:06:23 10° E
SL-27 R/B 4.5 06:07:20 13° W 06:08:06 14° WNW 06:10:02 10° NW
GPS 2-05 Rocket1 2.6 06:10:43 15° WSW 06:13:23 83° SSE 06:16:37 10° ENE
COSMOS 2406 4.3 06:11:34 12° WSW 06:15:55 27° WNW 06:20:46 10° N
AVUM R/B 3.1 06:13:09 10° SSW 06:16:11 65° WNW 06:19:25 10° NNE
Cosmos 2154 Rocket 4.0 06:12:30 10° N 06:18:47 70° W 06:25:05 10° S
Cosmos 1992 Rocket 4.0 06:15:33 10° NNW 06:20:42 60° WSW 06:25:50 10° S
Cosmos 1782 Rocket 3.9 06:17:42 10° NNW 06:21:47 42° W 06:25:51 10° SSW
Cosmos 1954 Rocket 4.0 06:17:00 10° SSW 06:22:10 89° E 06:27:22 10° NNE
MOS 1 Rocket 3.2 06:28:35 10° N 06:32:47 56° WNW 06:36:58 10° SSW
Okean-O 4.1 06:32:34 10° NNW 06:35:39 19° WNW 06:38:44 10° WSW
Cosmos 2341 Rocket 4.1 06:30:44 10° NNW 06:36:56 64° W 06:43:12 10° S
